Theta_e
297 298 299 299 299 300 301 301 300 302 305 305 304 304 304 305 302 301 297 297 296 293 293 293 294 297 299 301 304 302 305 305 305 307 307 306 305 304 305 305 306 307 305 306 306 310 308 301 305 306 301 299 299 299
297 298 299 299 300 300 301 301 300 301 304 304 303 303 303 302 302 300 297 296 296 293 293 293 294 295 295 295 297 297 301 302 303 304 303 302 306 302 302 307 303 307 304 306 304 305 299 297 299 297 297 298 298 297
297 298 299 299 299 300 300 300 300 303 304 303 302 301 301 301 301 300 297 296 295 292 292 292 293 295 296 296 297 300 297 298 300 296 299 301 306 302 304 303 304 304 301 304 304 301 299 298 297 296 296 296 296 295
297 298 299 299 299 300 300 300 298 303 302 301 301 300 302 302 302 300 297 296 295 292 294 294 294 294 295 296 297 298 297 296 295 295 297 300 304 299 301 302 302 301 302 301 300 298 298 297 297 296 296 295 295 294
297 299 299 299 300 300 300 300 298 300 302 300 300 302 300 299 298 299 297 298 296 295 295 294 293 295 295 296 296 297 296 295 296 297 295 298 297 298 295 297 299 298 300 301 302 297 297 296 296 295 294 294 293 293
298 298 299 299 299 300 300 299 298 300 300 299 300 301 299 298 298 298 297 297 296 296 293 295 293 293 295 295 294 294 294 292 292 295 294 293 293 295 297 299 295 294 294 294 297 295 295 295 294 294 292 292 292 292
297 298 298 299 299 299 300 299 300 301 300 299 298 298 298 297 297 297 297 296 296 296 292 294 293 293 295 293 292 293 293 292 292 293 294 293 293 292 295 298 295 294 295 295 294 294 296 295 293 292 290 290 290 290
297 298 298 299 299 299 299 300 302 301 300 299 298 297 297 297 296 295 296 297 297 293 289 292 295 293 294 294 295 291 293 292 292 292 292 293 292 292 296 295 294 294 293 292 292 292 291 292 291 289 289 289 288 287
297 298 298 299 299 299 300 297 302 300 299 298 297 297 296 296 294 295 296 296 296 294 291 289 292 293 292 293 293 293 292 296 292 294 294 294 294 294 295 294 293 292 293 293 292 291 291 291 289 287 287 286 287 286
297 298 298 299 298 299 299 298 301 300 298 297 297 296 294 295 294 296 295 292 291 290 289 291 289 293 291 291 292 292 294 295 289 295 292 295 295 294 292 291 292 292 292 291 286 287 289 285 287 287 286 285 285 285
297 298 299 299 298 299 299 298 300 299 297 296 294 293 294 295 295 291 291 291 291 291 291 288 288 293 291 291 294 293 293 295 292 293 294 291 295 294 291 290 289 288 289 289 289 289 288 287 284 285 286 286 286 286
298 299 299 299 298 299 299 298 300 298 296 296 295 295 294 291 289 289 286 290 293 292 290 292 292 292 292 291 292 292 293 295 294 294 293 292 293 291 290 289 288 287 288 288 289 288 287 287 287 286 285 285 285 286
298 299 300 299 298 299 299 299 300 297 296 295 293 292 293 288 288 286 288 288 290 291 290 289 291 290 291 291 291 290 290 291 295 297 293 292 291 291 289 286 289 289 288 288 287 287 287 286 286 285 285 285 285 285
299 299 299 298 298 299 298 298 299 298 296 294 291 294 293 289 287 288 291 292 292 291 289 288 290 291 291 290 290 288 295 292 292 289 291 288 291 291 288 288 287 287 287 286 284 285 284 284 284 285 285 285 284 283
299 299 298 299 299 297 297 299 298 296 293 293 290 293 287 290 291 289 285 289 287 290 288 288 288 290 289 291 292 294 294 287 291 291 289 287 287 287 288 287 286 285 281 280 283 283 283 283 283 284 285 285 284 283
299 299 299 297 298 300 300 298 295 293 290 287 284 287 290 291 291 287 282 286 285 288 287 289 288 289 290 290 290 288 290 290 290 286 287 286 286 287 286 286 285 285 284 284 284 284 284 285 284 283 284 284 284 283
299 297 297 301 299 297 296 295 295 290 290 287 288 289 290 289 290 288 289 289 287 288 289 287 288 290 288 288 290 286 287 287 285 285 283 286 287 286 285 284 285 285 285 284 284 284 284 284 284 282 279 284 284 284
297 297 299 299 296 293 293 293 290 289 288 285 290 290 290 288 288 289 288 288 289 288 287 287 287 286 287 288 288 287 285 280 282 284 285 287 286 285 285 283 284 284 284 283 283 283 282 282 281 282 283 283 283 283
297 297 298 296 295 294 292 291 289 287 285 287 288 288 288 288 287 287 287 287 287 286 284 282 285 285 288 285 284 279 278 283 289 287 283 284 284 283 284 284 283 283 283 282 282 281 282 282 282 282 282 282 281 282
297 297 296 296 296 291 291 290 288 287 288 288 287 288 288 287 286 285 286 287 287 280 284 284 287 287 288 286 283 285 283 284 284 283 283 282 283 283 283 283 282 282 281 281 281 282 281 282 282 282 281 282 283 282
297 298 296 294 291 289 289 287 287 286 286 288 286 287 285 281 282 281 281 282 281 280 285 284 285 284 284 284 286 286 284 284 282 282 282 279 283 283 282 282 281 280 280 280 280 280 280 280 280 280 281 281 281 282
297 297 292 292 288 286 286 286 287 285 285 287 286 286 284 284 282 279 275 278 280 284 283 283 282 282 283 283 283 285 285 284 283 283 283 283 280 278 280 280 279 277 277 278 278 278 277 277 277 277 278 277 277 278
294 293 290 289 288 288 287 285 288 287 290 287 284 287 283 279 277 277 281 277 280 278 280 280 278 282 282 282 283 284 284 284 281 282 282 282 281 280 279 278 277 277 276 277 276 275 275 275 274 276 275 274 274 275
295 291 291 289 289 288 287 287 288 288 287 286 285 285 282 281 279 282 286 280 281 280 279 276 281 280 280 281 278 281 283 283 283 282 281 280 277 277 276 276 277 277 276 275 274 274 273 273 274 273 273 273 273 273
294 290 290 287 286 287 288 287 287 288 287 284 285 282 280 280 286 285 286 281 278 280 278 278 278 279 280 277 277 281 282 282 280 275 279 278 275 275 275 276 276 275 274 274 272 272 272 272 272 272 272 273 274 276
293 287 290 288 285 288 288 289 288 287 286 284 283 280 279 285 289 290 285 283 281 280 279 282 281 279 278 279 277 278 282 281 280 277 277 276 275 274 272 272 270 273 273 273 272 272 272 272 272 273 273 273 275 275
290 287 286 286 287 288 288 288 288 289 289 287 282 282 285 290 288 286 280 277 279 280 284 284 286 283 280 281 282 282 281 280 279 277 276 275 275 274 273 272 271 273 273 272 272 272 272 272 272 272 272 273 273 274
287 285 287 285 286 286 290 289 290 290 287 284 286 289 290 290 289 283 279 279 281 283 283 284 284 285 284 283 281 280 279 278 277 276 275 275 274 274 273 273 274 273 273 274 272 272 272 272 273 273 273 273 273 274
286 285 287 285 284 283 283 287 286 284 283 285 287 284 283 279 275 273 277 279 281 283 279 279 279 282 281 280 280 279 278 276 276 268 268 267 267 274 273 274 275 274 274 274 273 272 272 274 273 273 272 273 273 273
285 285 285 282 285 283 279 277 281 279 279 280 281 280 280 276 276 276 278 280 280 280 281 282 282 282 280 281 278 276 275 275 275 274 266 266 270 274 274 274 274 274 274 273 273 273 273 273 273 273 273 273 272 272
285 283 282 281 280 278 277 275 278 279 277 277 276 279 278 276 279 279 279 280 281 281 281 278 279 281 282 279 277 274 272 274 274 274 274 274 275 275 275 274 274 274 273 273 273 272 273 272 272 271 271 271 271 270
284 284 284 283 281 278 277 279 279 280 277 278 276 273 273 277 279 276 280 280 278 278 281 282 282 282 282 280 279 277 276 276 275 274 274 275 276 276 275 275 274 274 274 273 273 273 273 272 271 271 271 270 271 271
284 284 283 283 283 284 281 282 280 280 277 275 273 269 268 275 282 279 278 279 281 282 283 283 283 283 281 279 278 276 276 275 275 276 274 274 276 277 276 275 275 274 274 273 273 273 273 273 272 272 271 271 272 272
Wind_Speed
29 29 30 32 32 33 32 31 31 26 18 14 15 21 17 15 8 5 7 11 2 3 3 4 5 3 3 3 4 3 3 2 3 3 2 2 2 3 2 3 4 5 4 3 2 1 6 4 1 4 2 1 4 2
27 28 29 31 31 31 29 27 28 25 15 15 16 13 13 9 4 4 3 10 15 6 3 4 12 15 6 2 4 3 2 2 3 4 1 3 2 1 3 2 1 2 5 3 6 4 1 3 1 2 1 3 2 1
26 27 27 29 28 28 27 24 26 6 12 12 13 18 8 7 10 9 2 4 8 4 3 5 4 11 13 9 3 3 1 3 1 1 3 2 2 2 3 4 2 2 2 2 1 1 1 1 1 2 3 3 2 2
24 26 25 26 25 25 22 17 22 7 11 8 13 11 11 9 12 10 1 1 6 3 3 2 8 4 11 8 3 1 5 4 5 2 3 2 2 1 3 2 2 3 3 3 2 1 0 3 2 2 2 3 2 3
23 25 23 23 23 21 17 13 14 5 11 11 16 12 11 10 10 12 4 1 3 4 3 1 3 9 12 12 13 11 10 4 3 3 3 1 1 2 1 1 2 0 3 4 4 3 3 2 4 3 1 2 3 2
24 23 24 23 20 19 15 12 12 10 13 15 14 11 10 8 14 10 2 1 7 5 4 2 2 4 10 10 16 12 7 3 3 3 2 1 1 2 2 2 2 2 0 2 3 3 2 3 4 2 2 3 3 4
23 22 22 21 19 16 13 14 11 20 18 16 12 11 12 9 7 2 2 3 8 5 3 3 2 3 4 4 4 3 6 3 3 2 2 2 0 2 2 3 2 2 2 2 2 4 2 3 2 1 2 5 7 7
22 22 21 19 16 11 10 9 23 23 19 16 14 11 9 6 6 2 4 9 5 9 4 3 1 2 3 2 2 3 2 2 4 2 1 1 1 1 3 3 3 3 2 1 1 2 2 2 1 3 4 5 5 6
21 20 19 16 12 9 8 6 21 19 18 16 15 16 5 2 2 4 8 5 4 4 3 2 4 3 1 1 1 2 2 3 1 2 1 1 0 3 3 4 5 6 4 3 1 1 1 2 4 5 5 6 4 6
22 20 18 14 13 11 11 8 23 21 19 20 15 3 1 3 11 9 2 2 4 3 3 3 1 2 3 1 1 2 2 1 1 1 1 1 3 2 2 3 5 5 4 3 3 3 2 3 4 5 5 5 6 6
23 21 18 17 15 15 17 12 28 24 21 6 3 2 4 10 3 3 1 3 1 2 1 2 3 4 1 3 3 1 2 1 2 2 2 2 3 3 5 4 4 3 3 1 2 2 3 5 5 6 7 7 11 12
24 23 23 20 20 21 24 13 32 23 10 8 9 7 5 2 3 3 2 1 2 4 2 4 3 3 2 2 3 2 3 1 2 1 1 2 3 3 6 5 5 4 2 3 2 4 6 7 8 9 10 13 16 19
25 26 21 23 23 28 31 21 39 24 13 8 2 3 2 1 3 5 6 3 2 5 5 3 3 3 2 2 3 3 4 2 2 2 3 4 2 4 6 3 3 3 3 4 5 5 7 9 11 10 13 18 19 19
24 19 21 24 29 31 36 26 36 27 4 3 5 3 5 2 5 5 4 4 2 4 7 4 3 3 2 3 3 5 2 3 2 1 5 3 5 6 5 2 2 3 4 6 8 10 9 9 11 14 16 20 19 18
21 21 22 27 31 35 30 37 37 22 2 3 3 5 5 2 1 1 2 2 1 6 5 4 3 3 2 4 1 3 2 2 4 4 3 3 3 4 3 2 5 6 4 4 10 10 12 12 12 16 20 23 24 22
18 20 23 24 30 32 49 43 22 6 1 2 2 3 1 2 2 2 2 2 2 4 2 2 3 4 2 4 3 4 6 6 3 3 3 1 3 3 3 4 6 9 10 12 15 15 15 15 17 19 22 25 21 20
27 5 18 33 48 45 41 16 5 2 2 1 1 1 2 0 3 3 3 4 5 2 3 3 4 3 3 3 1 3 5 3 3 3 2 4 3 2 2 5 9 12 12 15 17 20 23 22 21 21 11 22 20 21
10 16 25 41 42 30 8 5 4 2 3 2 1 1 1 1 3 3 3 3 3 2 3 4 5 3 5 5 3 3 3 2 2 2 2 2 1 2 4 7 12 14 15 19 19 21 21 22 15 13 18 22 19 20
25 32 31 37 30 11 3 2 3 3 2 1 1 1 1 2 2 3 3 3 2 2 5 2 5 3 3 3 3 2 2 2 3 2 1 1 3 5 7 10 12 13 16 18 18 14 17 20 18 18 19 19 14 17
29 36 37 31 24 4 4 2 1 3 3 2 2 1 2 2 1 2 3 3 2 2 3 2 3 3 3 3 3 3 3 4 3 2 1 2 4 6 8 11 14 16 18 17 17 15 16 14 14 17 19 17 16 15
29 31 41 33 4 6 3 3 1 2 3 2 1 1 1 2 3 2 2 2 3 2 2 2 2 2 6 6 9 12 8 5 2 3 2 2 4 7 10 13 14 12 8 10 10 12 14 12 16 18 17 17 17 16
15 43 12 9 4 2 3 2 3 3 2 1 2 1 3 2 1 1 1 2 2 2 2 3 3 3 4 4 4 9 9 8 5 3 1 4 3 4 8 14 15 11 14 14 11 11 13 17 18 18 17 18 19 19
30 17 7 4 4 2 3 3 3 2 4 3 1 3 1 0 2 0 1 2 2 2 1 3 5 7 9 9 11 10 7 6 4 2 3 6 7 8 8 12 10 10 8 7 14 15 15 18 18 19 18 18 19 19
23 4 4 4 3 4 5 3 2 3 3 2 2 4 1 2 0 2 2 2 2 0 1 3 11 4 4 5 3 4 6 5 3 3 5 7 7 7 9 9 8 9 6 12 16 17 18 17 19 18 18 18 18 17
6 4 5 4 1 5 4 5 3 3 3 3 4 1 2 2 2 1 3 2 2 2 2 5 5 2 3 2 1 4 5 2 2 1 5 2 6 4 6 7 7 9 9 17 18 18 18 19 19 18 19 17 18 17
4 5 6 6 4 5 6 6 6 6 5 4 2 2 2 2 3 5 3 6 4 4 5 8 6 3 1 4 3 3 5 2 3 3 3 2 5 1 2 2 4 11 13 18 18 17 19 19 18 19 18 20 20 20
5 5 3 1 4 5 5 3 3 3 5 6 5 5 3 5 5 3 0 2 3 8 22 23 19 11 9 11 9 6 2 2 3 5 6 2 3 2 5 5 8 14 17 17 16 17 19 19 19 19 19 21 19 19
3 4 9 6 4 1 7 4 4 4 4 3 5 5 9 8 5 3 3 6 15 27 25 15 12 17 19 14 10 4 2 1 2 1 3 3 2 5 7 12 12 12 13 14 15 16 16 18 21 19 18 18 20 17
3 3 5 5 5 5 3 3 4 2 1 3 4 3 3 1 0 1 4 24 30 31 22 20 16 16 15 12 5 2 2 3 3 3 2 2 4 0 12 12 14 14 15 16 18 14 14 14 16 16 14 12 11 11
2 1 5 4 5 4 1 1 1 1 2 1 2 3 3 2 5 7 22 24 21 18 21 23 24 16 13 9 5 2 3 4 2 3 3 3 3 9 13 16 15 14 14 18 18 16 13 12 13 12 13 12 12 14
3 3 5 5 4 2 1 2 2 2 3 4 5 4 3 2 4 5 12 13 14 21 22 19 16 12 12 10 6 5 5 9 5 0 3 4 7 11 14 13 10 12 14 15 14 13 13 12 12 14 14 14 14 13
3 3 5 5 3 1 2 1 2 3 3 3 3 2 2 3 2 3 12 14 17 18 16 20 18 15 10 7 4 5 4 6 4 1 2 4 8 11 9 8 9 9 12 12 12 12 11 11 12 13 13 14 14 14
4 5 5 5 3 2 2 3 4 3 4 3 3 1 1 2 5 4 14 18 18 25 23 18 12 10 8 5 5 6 5 4 3 1 2 2 6 8 8 5 5 8 11 9 11 11 10 10 11 12 13 14 14 14
Wind_Direction
318 321 324 328 330 331 339 341 346 351 109 111 135 153 160 158 85 109 13 5 76 96 28 2 8 50 53 79 136 204 85 346 49 73 115 178 130 209 106 165 176 163 154 196 144 231 281 355 2 168 181 27 124 122
315 319 325 328 331 333 338 344 345 349 112 132 144 153 168 153 132 137 32 48 65 75 125 84 66 50 43 354 126 28 153 124 169 97 102 121 136 114 144 218 26 202 181 185 180 223 344 344 30 13 134 127 121 45
312 318 325 326 329 332 339 343 344 36 125 139 154 150 140 162 160 173 140 84 68 88 43 43 347 349 26 11 0 117 289 163 80 143 148 135 117 124 158 237 188 264 151 182 95 62 89 31 23 57 49 78 53 24
310 314 322 323 324 329 333 338 342 133 131 144 147 157 137 145 179 174 199 131 82 98 98 324 21 13 3 18 35 96 131 92 98 60 90 108 129 184 194 178 183 201 125 172 282 245 218 251 249 123 88 37 20 351
306 311 318 317 316 321 322 326 327 339 155 160 161 139 149 147 156 177 184 357 98 117 125 168 315 18 25 48 66 79 86 76 48 51 56 106 79 95 1 64 267 210 191 169 230 203 158 222 173 151 22 329 305 301
303 309 314 313 311 316 309 306 305 295 165 155 147 152 156 143 146 149 55 73 111 112 102 96 297 354 11 36 50 40 43 61 75 94 104 65 309 107 113 205 259 261 251 200 212 169 134 111 158 140 298 306 313 305
298 303 309 308 307 307 302 297 283 169 158 157 147 151 164 167 191 88 173 159 136 96 89 100 11 339 348 17 29 19 35 55 81 103 65 132 38 81 139 209 201 180 145 90 99 124 103 183 198 246 313 305 316 316
292 299 303 299 294 291 297 337 167 161 154 151 147 151 151 155 140 67 100 146 113 92 76 107 59 19 9 37 48 357 39 32 17 109 53 99 354 35 234 226 168 150 157 148 106 66 115 83 49 356 332 327 331 302
288 291 294 289 271 257 244 282 165 155 154 151 142 151 160 223 107 130 121 125 87 79 118 98 138 188 50 70 55 27 42 64 294 86 63 87 237 238 214 172 178 184 189 217 240 333 32 356 332 329 314 314 300 295
282 282 280 276 246 232 212 229 169 158 153 147 145 159 231 176 136 137 126 42 26 356 40 93 120 120 108 113 20 86 12 108 81 320 341 201 257 272 263 224 175 164 162 129 60 326 328 314 278 288 276 270 254 262
281 279 267 266 234 215 202 194 167 156 158 166 152 152 125 136 157 30 84 109 164 33 61 154 154 141 232 120 149 182 156 93 83 260 138 287 276 222 178 190 174 163 163 168 209 251 259 247 266 293 299 282 285 286
281 279 269 245 221 203 195 187 166 158 195 189 143 121 139 64 41 102 220 353 179 199 169 132 160 147 165 137 102 313 108 63 211 154 87 270 255 220 172 209 201 193 233 276 269 279 286 282 287 281 277 280 291 293
281 275 246 218 206 197 191 184 173 179 173 147 93 82 100 333 38 160 200 270 178 178 173 152 125 139 120 68 73 86 82 167 154 184 239 230 250 187 194 205 223 219 255 286 290 285 287 295 307 300 292 303 302 297
275 245 220 210 197 196 192 184 176 179 205 177 153 175 180 206 243 193 187 166 146 129 136 113 120 142 141 69 132 88 121 85 83 326 237 250 223 204 192 183 179 258 265 267 269 283 280 286 297 316 318 323 316 296
248 230 214 205 202 199 211 190 176 172 238 221 120 212 198 187 93 115 119 107 213 143 118 96 73 104 56 98 91 110 112 229 205 228 230 238 231 179 192 216 243 263 261 257 270 265 274 287 295 300 316 322 318 311
219 195 199 214 219 208 166 158 148 156 302 164 94 96 154 93 193 161 120 152 220 136 86 76 115 77 77 131 103 196 130 211 234 215 230 186 156 176 228 255 270 277 275 269 273 272 277 284 290 297 304 309 315 315
173 171 192 152 141 139 138 123 115 98 264 181 238 249 131 152 156 155 133 169 146 106 165 124 84 173 103 62 116 194 197 214 203 232 209 179 160 230 281 297 301 307 297 290 283 284 284 293 304 305 292 306 313 315
164 170 164 145 131 120 99 86 99 149 229 257 166 185 140 83 124 136 135 129 132 156 120 182 124 114 153 148 237 222 216 239 211 197 169 174 132 349 347 323 325 321 313 315 311 305 300 297 291 289 295 304 308 309
168 165 155 145 144 121 108 111 125 158 207 209 90 28 72 83 40 95 101 91 90 93 112 52 84 144 197 203 169 204 211 183 155 181 189 47 54 23 345 334 328 326 329 325 319 306 302 304 297 301 304 308 293 297
170 172 176 163 157 97 104 94 125 117 162 168 88 79 76 84 41 64 76 56 70 95 41 77 164 181 146 180 179 144 146 145 121 88 353 339 26 360 343 335 323 325 324 325 324 328 321 322 328 325 319 311 312 308
170 170 162 152 82 71 82 127 103 153 123 118 145 151 88 22 41 39 61 9 61 163 142 204 118 86 84 93 112 119 116 124 131 134 178 271 329 325 327 336 337 337 332 330 330 330 339 331 329 327 326 323 321 320
160 154 130 142 90 100 89 102 123 131 82 130 125 70 92 85 121 304 271 66 203 217 172 134 155 126 103 117 117 114 124 112 104 97 37 345 338 339 336 332 337 332 335 330 342 339 332 326 326 328 328 322 322 317
138 138 108 115 108 102 109 106 131 175 139 180 105 95 56 240 226 125 63 223 247 259 145 110 118 112 118 123 121 115 121 130 125 87 341 314 312 324 318 325 333 324 320 342 343 331 327 334 332 333 328 327 326 321
148 86 132 124 120 124 137 141 152 120 109 118 107 117 214 180 153 50 183 245 251 152 109 135 128 98 79 92 87 129 141 145 110 342 336 303 316 324 333 333 341 348 353 336 344 342 339 329 332 328 326 325 323 317
125 176 135 118 164 123 125 147 137 106 121 161 125 140 221 174 113 168 198 229 190 186 145 130 119 100 130 128 141 167 160 134 63 265 339 196 336 315 348 3 356 351 345 348 346 335 328 329 330 326 324 324 321 328
113 175 168 162 148 139 161 148 160 157 128 129 109 106 141 131 127 211 217 173 175 169 169 167 150 133 107 159 148 183 182 223 334 304 287 288 334 327 288 348 343 340 345 343 337 324 321 325 322 323 323 328 332 333
133 178 178 40 110 125 99 74 87 144 141 158 165 161 145 147 201 241 200 217 150 178 175 167 158 154 156 156 144 154 185 308 316 295 292 247 54 74 67 22 330 334 341 334 329 331 324 319 319 318 318 323 325 329
133 174 142 164 108 356 114 104 152 157 164 156 136 154 155 165 176 191 191 159 145 141 143 140 140 141 141 142 139 134 153 304 281 209 132 146 21 144 12 358 353 349 336 336 335 331 328 327 323 324 322 322 324 337
115 138 111 88 92 64 65 130 161 178 119 153 122 138 148 81 323 164 153 142 139 134 124 127 128 136 131 139 126 91 106 122 163 86 104 272 328 124 343 348 345 342 341 337 342 338 332 330 330 330 326 335 347 350
100 2 93 61 76 90 38 342 127 139 79 94 115 116 98 56 30 121 141 143 143 148 156 157 151 151 154 153 149 163 181 177 128 107 159 204 282 347 348 343 340 342 341 339 341 347 354 353 351 357 3 5 5 360
109 105 82 51 80 50 24 311 258 94 50 37 11 71 96 118 58 142 159 157 155 151 144 143 160 169 157 165 172 171 218 205 194 35 37 46 18 358 350 344 347 347 347 345 348 356 2 4 2 4 6 4 4 359
46 68 119 104 107 169 233 133 63 71 27 53 25 41 45 80 127 242 195 177 162 161 168 171 167 180 174 169 180 192 179 155 162 128 93 66 21 5 355 347 351 358 3 5 8 13 14 14 14 12 6 0 358 356
73 74 86 110 116 90 44 81 38 71 39 50 26 349 3 142 163 198 180 193 191 184 179 173 160 153 155 156 169 174 167 157 136 77 6 360 330 336 323 316 335 356 3 3 13 16 18 21 24 20 13 8 5 3